Springfield, CO

8:20 PM MDT on May 27, 2017 (GMT -0600)
Springfield

Weather History for KSPD - November, 2011

Change the Weather History Date:

Thursday, November 17, 2011

  Actual Average Record
Temperature  
Mean Temperature 42 °F -  
Max Temperature 61 °F 56 °F 78 °F (1999)
Min Temperature 22 °F 26 °F 0 °F (2014)
Degree Days  
Heating Degree Days 23 24  
Month to date heating degree days 390 350  
Since 1 July heating degree days 752 795  
Cooling Degree Days 0 0  
Month to date cooling degree days 0 0  
Year to date cooling degree days 1530 1028  
Moisture  
Dew Point 18 °F    
Average Humidity 47    
Maximum Humidity 77    
Minimum Humidity 17    
Precipitation  
Precipitation 0.00 in 0.01 in 0.14 in (2004)
Month to date precipitation 0.82  
Year to date precipitation 5.62  
Sea Level Pressure  
Sea Level Pressure 30.03 in    
Wind  
Wind Speed 15 mph (SW)    
Max Wind Speed 26 mph    
Max Gust Speed 31 mph    
T = Trace of Precipitation, MM = Missing Value Source: NWS Daily Summary

Daily Weather History Graph

Daily Weather History Graph

Search for Another Location

Airport or City:

Trip Planner

Search our weather history database for the weather conditions in past years. The results will help you decide how hot, cold, wet, or windy it might be!

Date:

Astronomy

Nov. 17, 2011 Rise Set
Actual Time 6:31 AM MST 4:38 PM MST
Civil Twilight 6:03 AM MST 5:06 PM MST
Nautical Twilight 5:31 AM MST 5:38 PM MST
Astronomical Twilight 5:01 AM MST 6:09 PM MST
Moon 10:58 PM MST (11/17) 11:43 AM MST (11/17)
Length of Visible Light 11h 03m
Length of Day
10h 07m
Waning Gibbous, 59% of the Moon is Illuminated
Nov 17
Waning Gibbous
Nov 18
Last Quarter
Nov 24
New
Dec 2
First Quarter
Dec 10
Full

Hourly Weather History & Observations

Time (MST) Temp. Windchill Dew Point Humidity Pressure Visibility Wind Dir Wind Speed Gust Speed Precip Events Conditions
12:56 AM 23.0 °F 14.7 °F 15.1 °F 72% 30.35 in - SW 6.9 mph - N/A   Unknown
1:56 AM 24.1 °F 13.1 °F 15.1 °F 69% 30.32 in - SW 11.5 mph - N/A   Unknown
2:56 AM 21.9 °F 11.7 °F 15.1 °F 75% 30.30 in - SW 9.2 mph - N/A   Unknown
3:56 AM 24.1 °F 12.0 °F 15.1 °F 69% 30.28 in - SSW 13.8 mph - N/A   Unknown
4:56 AM 26.1 °F 14.5 °F 14.0 °F 60% 30.27 in - SW 13.8 mph 24.2 mph N/A   Unknown
5:56 AM 28.0 °F 15.7 °F 14.0 °F 56% 30.25 in - SW 17.3 mph 26.5 mph N/A   Unknown
6:56 AM 28.0 °F 16.1 °F 15.1 °F 58% 30.24 in - SW 16.1 mph 26.5 mph N/A   Unknown
7:56 AM 33.1 °F 22.6 °F 16.0 °F 50% 30.22 in - SW 16.1 mph 24.2 mph N/A   Unknown
9:56 AM 43.0 °F 34.8 °F 18.0 °F 37% 30.13 in - SW 18.4 mph 26.5 mph N/A   Unknown
10:56 AM 48.9 °F - 19.0 °F 31% 30.07 in - SW 13.8 mph 24.2 mph N/A   Unknown
11:56 AM 54.0 °F - 17.1 °F 23% 30.00 in - SW 13.8 mph 21.9 mph N/A   Unknown
12:56 PM 60.1 °F - 16.0 °F 18% 29.92 in - SSW 16.1 mph 24.2 mph N/A   Unknown
1:56 PM 60.1 °F - 17.1 °F 19% 29.89 in - SSW 23.0 mph 26.5 mph N/A   Unknown
2:56 PM 60.1 °F - 17.1 °F 19% 29.87 in - SW 19.6 mph 31.1 mph N/A   Unknown
3:56 PM 55.9 °F - 18.0 °F 23% 29.87 in - SSW 21.9 mph - N/A   Unknown
4:56 PM 50.0 °F - 19.0 °F 29% 29.87 in - SW 18.4 mph - N/A   Unknown
5:56 PM 48.9 °F - 21.0 °F 33% 29.86 in - SW 15.0 mph 24.2 mph N/A   Unknown
6:56 PM 45.0 °F 38.9 °F 23.0 °F 42% 29.86 in - SW 12.7 mph - N/A   Unknown
7:56 PM 42.1 °F 35.7 °F 23.0 °F 47% 29.85 in - SW 11.5 mph - N/A   Unknown
8:56 PM 39.0 °F 31.4 °F 23.0 °F 53% 29.84 in - SW 12.7 mph - N/A   Unknown
9:56 PM 33.1 °F 24.9 °F 23.0 °F 66% 29.82 in - SW 10.4 mph - N/A   Unknown
10:56 PM 33.1 °F 25.5 °F 23.0 °F 66% 29.78 in - WSW 9.2 mph - N/A   Unknown
11:56 PM 35.1 °F 25.5 °F 23.0 °F 61% 29.74 in - WSW 15.0 mph - N/A   Unknown